OCEANSAT-2

Last updated on Thu Oct 30 2025 00:02:31 GMT+0000 (Coordinated Universal Time)

1 35931U 09051A 25302.51106225 .00000329 00000+0 25048-3 0 9995 2 35931 98.2229 307.5905 0016822 161.1934 198.9857 13.99611264847062
UTC large
Height (km)
Speed (km/s)
/
Latitude / Longitude
Inclination (degrees)
Orbital Period (minutes)
Azimuth
Elevation
Range (km)
Doppler Factor

Next 0 passes for location: London (51.5072 / 0.1276)

Sorry there are no passes over London.